Location: Unspecified
(48.7670°N, 0.0000°E)
Time: 15:19:46
(UTC+00:00)

Courier 1B - Pass Details

Date: 26 June 2019
Orbit: 962 x 1209 km, 28.3° (Epoch: 21 August)

Event Time Altitude Azimuth Distance (km) Brightness Sun altitude
Rises 16:48:22 0° 211° (SSW) 3,726 10.9 29.4°
Reaches altitude 10° 16:54:48 10° 167° (SSE) 2,857 9.9 28.4°
Maximum altitude 16:55:04 10° 165° (SSE) 2,859 9.8 28.3°
Drops below altitude 10° 16:55:22 10° 162° (SSE) 2,865 9.8 28.3°
Sets 17:02:03 0° 119° (ESE) 3,914 10.1 27.2°
